Location: Harwich
(41.6860°N, 70.0760°W)
Time: 12:24:16
(UTC-04:00)

OTV 5 (USA 277) - Visible Passes

Search period start: 26 April 2019 00:00
Search period end: 06 May 2019 00:00
Orbit: 310 x 325 km, 54.5° (Epoch: 24 April)

Date Brightness Start Highest point End Pass type
(mag) Time Alt. Az. Time Alt. Az. Time Alt. Az.
26 Apr ? 20:36:55 10° W 20:39:17 26° NNW 20:41:39 10° NNE visible
27 Apr ? 20:52:41 10° WNW 20:54:16 14° NNW 20:55:50 10° N visible
03 May ? 22:23:46 10° NNW 22:24:26 13° N 22:24:26 13° N visible
04 May ? 22:37:58 10° NNW 22:38:29 13° NNW 22:38:29 13° NNW visible
05 May ? 21:19:27 10° N 21:20:24 11° NNE 21:21:22 10° NE visible
05 May ? 22:52:29 10° NW 22:52:33 11° NW 22:52:33 11° NW visible
